PALAPA D

导读 | 豆包AI

PALAPA-D(帕拉帕-D)是印度尼西亚的商业通信卫星,于北京时间2009年8月31日,由中国在西昌卫星发射中心通过长征三号乙运载火箭发射升空。该卫星由法国泰雷兹阿莱尼亚宇航公司为印尼卫星公司研制,定点于地球同步静止轨道,主要提供通信广播服务,设计可在轨运行十余年,发射后顺利完成变轨定点,长期保持正常运行状态。

基本信息
目录编号:
35812
目录名称:
PALAPA D
国际标识:
2009-046A
轨道中心:
EARTH
卫星名称:
PALAPA D
卫星全名:
--
卫星状态:
在轨 (已飞行6087 天)
发射日期:
2009-08-31 UTC
国别 :
印度尼西亚 (ID)
星等 :
--
轨道信息
数据来源 国际轨道数据 AOE轨道数据
星历时间 2026-04-30T17:38:42+0800
1天前
查看轨道信息
2026-05-01T06:00:00+0800
14小时前
查看轨道信息
半长轴 42598.222km 42598.194km
偏心率 0.0016828 0.0016831
轨道倾角 5.586° 5.587°
近地点辐角 33.465° 33.457°
升交点赤经 76.031° 76.028°
平近点角 326.583° 149.600°
近地点 36148.4km 36148.359km
远地点 36291.77km 36291.755km
周期 1458.300分钟 1458.299分钟
每日圈数 0.987451 0.987452
详细信息
使用方式:
暂无
2D轨道图
3D轨道图
轨道高度分析图
轨道倾角分析图
轨道综合分析图
查看轨道综合分析图